Powrót do katalogu

STARLINK-3242

AktywnyŁącznośćVLEO
NORAD 49727·PAYLOAD·🇺🇸 United States

Wystrzelony Dec 2, 2021 z Cape Canaveral Space Force Station

Loading…

Następne Przeloty (najbliższe 24 godziny)

TLE

ŚwieżeSource: CelesTrak SupGP

Epoka: Sep 14, 2026, 20:58 UTC

1 49727C 21115D   26257.87409722  .00008265  00000+0  24419-3 0  2570
2 49727  53.1603  16.3074 0001229  70.2402  52.5752 15.34385860    19

Śledź STARLINK-3242 w czasie rzeczywistym z AllMySat

Download on the App Store